Location: Austin
(30.3000°N, 97.7500°W)
Time: 11:51:44
(UTC-05:00)

NOSS 3-2 (C) - Pass Details

Date: 26 May 2023
Orbit: 734 x 1478 km, 63.4° (Epoch: 19 May)

Event Time Altitude Azimuth Distance (km) Brightness Sun altitude
Rises 20:52:38 0° 181° (S) 3,143 5.9 -6.2°
Reaches altitude 10° 20:55:11 10° 169° (S) 2,241 5.0 -6.6°
Maximum altitude 20:59:30 29° 110° (ESE) 1,397 3.8 -7.5°
Drops below altitude 10° 21:04:10 10° 52° (NE) 2,445 5.4 -8.3°
Sets 21:07:05 0° 42° (NE) 3,485 6.3 -8.9°
